W1HVD Weather Reports


time (UTC)temp
C
wind
direction
speed
KPH
gust
KPH
rain 1hr
cm
rain 24hr
cm
rain mn
cm
humidity
%
barometer
mb
20260505070856 10 168 0.0 0.0 0.00 0.00 0.00 91 1011.4
20260505070352 10 144 0.0 0.0 0.00 0.00 0.00 91 1011.4
20260505065848 10 175 1.6 1.6 0.00 0.00 0.00 91 1011.4
20260505065345 10 183 0.0 0.0 0.00 0.00 0.00 91 1011.5
20260505064842 10 186 0.0 0.0 0.00 0.00 0.00 90 1011.5
20260505064339 10 179 0.0 1.6 0.00 0.00 0.00 91 1011.5
20260505063837 10 211 0.0 0.0 0.00 0.00 0.00 90 1011.6
20260505063333 10 170 0.0 0.0 0.00 0.00 0.00 90 1011.5
20260505062830 10 192 0.0 1.6 0.00 0.00 0.00 90 1011.7
20260505062327 10 188 0.0 0.0 0.00 0.00 0.00 90 1011.5
20260505061823 10 204 0.0 0.0 0.00 0.00 0.00 89 1011.4
20260505061322 10 185 0.0 0.0 0.00 0.00 0.00 89 1011.5
20260505060819 10 209 1.6 1.6 0.00 0.00 0.00 89 1011.4
20260505060316 10 187 0.0 1.6 0.00 0.00 0.00 89 1011.5
20260505055811 10 184 1.6 1.6 0.00 0.00 0.00 89 1011.7
20260505055308 10 229 3.2 3.2 0.00 0.00 0.00 89 1011.7
20260505054805 10 160 0.0 0.0 0.00 0.00 0.00 88 1011.6
20260505054302 10 194 1.6 1.6 0.00 0.00 0.00 88 1011.5
20260505053801 10 194 0.0 0.0 0.00 0.00 0.00 88 1011.6
20260505053257 10 187 0.0 0.0 0.00 0.00 0.00 87 1011.7
20260505052754 10 207 1.6 1.6 0.00 0.00 0.00 87 1011.6
20260505052251 10 176 0.0 1.6 0.00 0.00 0.00 87 1011.5
20260505051748 10 193 0.0 0.0 0.00 0.00 0.00 86 1011.7
20260505051246 10 141 3.2 3.2 0.00 0.00 0.00 86 1011.7
20260505050744 10 241 1.6 1.6 0.00 0.00 0.00 86 1011.5
20260505050243 10 149 1.6 3.2 0.00 0.00 0.00 86 1011.8
20260505041712 10 198 0.0 1.6 0.00 0.00 0.00 83 1011.7
20260505041209 11 182 0.0 0.0 0.00 0.00 0.00 82 1011.8
20260505040706 11 194 3.2 3.2 0.00 0.00 0.00 82 1011.9
20260505040203 10 243 1.6 1.6 0.00 0.00 0.00 82 1011.8
20260505035700 11 205 0.0 0.0 0.00 0.00 0.00 82 1011.7
20260505035156 11 189 1.6 1.6 0.00 0.00 0.00 82 1011.5
20260505034652 11 209 0.0 1.6 0.00 0.00 0.00 82 1011.7
20260505034150 10 214 1.6 1.6 0.00 0.00 0.00 82 1011.8
20260505033646 10 157 0.0 0.0 0.00 0.00 0.00 82 1011.9
20260505033145 10 172 1.6 1.6 0.00 0.00 0.00 82 1011.8
20260505032642 11 179 4.8 4.8 0.00 0.00 0.00 82 1011.8
20260505032138 11 169 0.0 0.0 0.00 0.00 0.00 82 1012.0
20260505031636 11 111 1.6 3.2 0.00 0.00 0.00 81 1011.7
20260505031132 11 207 1.6 3.2 0.00 0.00 0.00 82 1012.0
20260505030629 11 157 0.0 0.0 0.00 0.00 0.00 81 1012.0
20260505030125 11 198 3.2 4.8 0.00 0.00 0.00 81 1012.1
20260505025620 11 139 1.6 1.6 0.00 0.00 0.00 81 1012.1
20260505025120 11 176 3.2 3.2 0.00 0.00 0.00 80 1012.1
20260505024617 11 138 3.2 4.8 0.00 0.00 0.00 80 1012.2
20260505024114 11 169 1.6 1.6 0.00 0.00 0.00 80 1011.9
20260505023611 11 56 3.2 4.8 0.00 0.00 0.00 80 1011.9
20260505023108 11 191 3.2 4.8 0.00 0.00 0.00 80 1011.9
20260505022606 11 233 1.6 3.2 0.00 0.00 0.00 79 1012.1
20260505022102 11 204 1.6 1.6 0.00 0.00 0.00 79 1012.1
20260505021559 11 224 1.6 1.6 0.00 0.00 0.00 79 1012.2
20260505021056 11 213 6.4 9.7 0.00 0.00 0.00 79 1012.1
20260505020556 11 190 3.2 3.2 0.00 0.00 0.00 78 1012.1
20260505020053 11 151 6.4 6.4 0.00 0.00 0.00 78 1012.1
20260505015550 11 216 1.6 1.6 0.00 0.00 0.00 78 1012.1
20260505015047 11 187 0.0 0.0 0.00 0.00 0.00 77 1012.1
20260505014543 11 223 3.2 3.2 0.00 0.00 0.00 77 1012.1
20260505014041 11 190 3.2 4.8 0.00 0.00 0.00 76 1012.1
20260505013538 11 150 1.6 4.8 0.00 0.00 0.00 76 1011.9
20260505013035 12 196 6.4 9.7 0.00 0.00 0.00 75 1011.7
20260505012533 12 218 3.2 9.7 0.00 0.00 0.00 75 1011.6
20260505012030 12 185 0.0 1.6 0.00 0.00 0.00 76 1011.6
20260505011525 12 219 1.6 3.2 0.00 0.00 0.00 75 1011.4
20260505011023 12 181 4.8 6.4 0.00 0.00 0.00 74 1011.4
20260505010518 12 74 6.4 9.7 0.00 0.00 0.00 74 1011.3
20260505010015 12 273 3.2 4.8 0.00 0.00 0.00 74 1011.1
20260505005511 12 188 8.0 14.5 0.00 0.00 0.00 73 1011.2
20260505005009 12 155 3.2 4.8 0.00 0.00 0.00 73 1011.1
20260505004506 12 200 3.2 3.2 0.00 0.00 0.00 72 1011.1
20260505004002 12 233 3.2 4.8 0.00 0.00 0.00 71 1010.9
20260505003459 12 203 3.2 4.8 0.00 0.00 0.00 71 1010.7
20260505002956 12 197 0.0 1.6 0.00 0.00 0.00 70 1010.7
20260505002452 12 201 1.6 1.6 0.00 0.00 0.00 70 1010.6
20260505001951 12 216 3.2 4.8 0.00 0.00 0.00 69 1010.6
20260505001448 12 152 3.2 4.8 0.00 0.00 0.00 68 1010.6
20260505000944 12 222 6.4 9.7 0.00 0.00 0.00 68 1010.4
20260505000443 12 210 3.2 3.2 0.00 0.00 0.00 67 1010.3
20260504235939 13 179 4.8 6.4 0.00 0.00 0.00 66 1010.1
20260504235437 13 212 1.6 3.2 0.00 0.00 0.00 65 1010.1
20260504234932 13 229 3.2 3.2 0.00 0.00 0.00 63 1010.1
20260504234430 13 229 6.4 6.4 0.00 0.00 0.00 62 1009.9
20260504233926 13 212 3.2 4.8 0.00 0.00 0.00 61 1009.8
20260504233422 13 183 9.7 14.5 0.00 0.00 0.00 60 1010.0
20260504232920 14 214 3.2 6.4 0.00 0.00 0.00 60 1009.9
20260504232417 14 153 1.6 3.2 0.00 0.00 0.00 58 1009.7
20260504231914 14 196 1.6 1.6 0.00 0.00 0.00 57 1009.7
20260504231409 15 178 8.0 9.7 0.00 0.00 0.00 55 1009.5
20260504230906 15 179 8.0 11.3 0.00 0.00 0.00 54 1009.7
20260504230403 15 226 3.2 3.2 0.00 0.00 0.00 53 1009.7
20260504225902 15 226 3.2 4.8 0.00 0.00 0.00 53 1009.4
20260504225358 15 125 6.4 9.7 0.00 0.00 0.00 52 1009.5
20260504224856 16 179 4.8 6.4 0.00 0.00 0.00 50 1009.3
20260504224352 16 160 6.4 6.4 0.00 0.00 0.00 49 1009.4
20260504223849 16 257 3.2 3.2 0.00 0.00 0.00 48 1009.3
20260504223344 16 162 6.4 9.7 0.00 0.00 0.00 48 1009.1
20260504222841 16 32 6.4 6.4 0.00 0.00 0.00 48 1009.1
20260504222338 17 128 4.8 4.8 0.00 0.00 0.00 47 1009.0
20260504221837 17 153 3.2 4.8 0.00 0.00 0.00 47 1009.0
20260504221333 17 247 12.9 17.7 0.00 0.00 0.00 46 1008.8
20260504220830 17 259 4.8 4.8 0.00 0.00 0.00 46 1008.8
20260504220327 17 207 6.4 12.9 0.00 0.00 0.00 46 1009.0
20260504215824 17 214 4.8 6.4 0.00 0.00 0.00 46 1008.9
20260504215320 17 201 8.0 16.1 0.00 0.00 0.00 45 1008.9
20260504214816 18 157 9.7 14.5 0.00 0.00 0.00 45 1009.0
20260504214314 18 159 6.4 9.7 0.00 0.00 0.00 44 1009.0
20260504213810 18 232 6.4 9.7 0.00 0.00 0.00 44 1008.8
20260504213306 18 192 6.4 9.7 0.00 0.00 0.00 43 1008.8
20260504212804 18 191 6.4 9.7 0.00 0.00 0.00 44 1008.7
20260504212300 18 137 4.8 6.4 0.00 0.00 0.00 44 1008.9
20260504211758 18 186 11.3 20.9 0.00 0.00 0.00 43 1008.8
20260504211253 18 225 3.2 3.2 0.00 0.00 0.00 44 1008.7
20260504210751 18 255 3.2 4.8 0.00 0.00 0.00 44 1008.6
20260504210248 18 253 12.9 20.9 0.00 0.00 0.00 43 1008.4
20260504205745 18 249 3.2 4.8 0.00 0.00 0.00 43 1008.6
20260504205243 18 239 8.0 11.3 0.00 0.00 0.00 42 1008.6
20260504204741 18 185 4.8 9.7 0.00 0.00 0.00 42 1008.7
20260504204239 19 168 12.9 22.5 0.00 0.00 0.00 41 1008.6
20260504203738 20 239 3.2 4.8 0.00 0.00 0.00 40 1008.4
20260504203235 20 241 6.4 6.4 0.00 0.00 0.00 40 1008.4
20260504202735 19 358 4.8 6.4 0.00 0.00 0.00 40 1008.4
20260504202232 19 221 3.2 3.2 0.00 0.00 0.00 40 1008.3
20260504201729 19 237 11.3 20.9 0.00 0.00 0.00 38 1008.4
20260504201226 20 282 9.7 11.3 0.00 0.00 0.00 38 1008.4
20260504200724 19 188 3.2 6.4 0.00 0.00 0.00 39 1008.4
20260504200220 19 190 12.9 24.1 0.00 0.00 0.00 40 1008.4
20260504195717 19 191 8.0 14.5 0.00 0.00 0.00 39 1008.6
20260504195212 19 222 14.5 24.1 0.00 0.00 0.00 39 1008.4
20260504194710 20 176 12.9 16.1 0.00 0.00 0.00 38 1008.3
20260504194206 20 211 12.9 17.7 0.00 0.00 0.00 37 1008.6
20260504193702 20 209 6.4 9.7 0.00 0.00 0.00 37 1008.4
20260504193200 20 252 6.4 12.9 0.00 0.00 0.00 37 1008.1
20260504192658 20 222 6.4 9.7 0.00 0.00 0.00 36 1008.3
20260504192156 20 136 6.4 12.9 0.00 0.00 0.00 37 1008.2
20260504191654 20 186 11.3 14.5 0.00 0.00 0.00 37 1008.4
20260504191150 20 166 6.4 9.7 0.00 0.00 0.00 37 1008.2
20260504190646 20 43 3.2 4.8 0.00 0.00 0.00 36 1008.6
20260504190143 20 214 9.7 12.9 0.00 0.00 0.00 37 1008.4
20260504185639 20 143 6.4 12.9 0.00 0.00 0.00 37 1008.6
20260504185136 20 214 9.7 12.9 0.00 0.00 0.00 35 1008.6
20260504184632 20 189 4.8 9.7 0.00 0.00 0.00 37 1008.7
20260504184127 20 204 3.2 4.8 0.00 0.00 0.00 36 1008.6
20260504183624 21 185 4.8 9.7 0.00 0.00 0.00 36 1008.6
20260504183122 21 236 12.9 14.5 0.00 0.00 0.00 35 1008.4
20260504182619 21 236 16.1 22.5 0.00 0.00 0.00 29 1008.6
20260504182117 21 244 6.4 12.9 0.00 0.00 0.00 30 1008.6
20260504181614 21 218 4.8 6.4 0.00 0.00 0.00 33 1008.6
20260504181111 21 187 9.7 14.5 0.00 0.00 0.00 30 1008.8
20260504180610 20 356 4.8 4.8 0.00 0.00 0.00 33 1008.7
20260504180109 21 211 14.5 17.7 0.00 0.00 0.00 30 1008.9
20260504175606 21 205 9.7 16.1 0.00 0.00 0.00 32 1008.7
20260504175102 20 174 0.0 1.6 0.00 0.00 0.00 34 1008.8
20260504174601 20 269 9.7 12.9 0.00 0.00 0.00 30 1008.6
20260504174057 20 252 4.8 6.4 0.00 0.00 0.00 29 1008.6
20260504173554 20 232 3.2 6.4 0.00 0.00 0.00 32 1008.6
20260504173051 20 206 1.6 3.2 0.00 0.00 0.00 32 1008.7
20260504172547 20 269 8.0 9.7 0.00 0.00 0.00 32 1008.9
20260504172044 20 237 3.2 4.8 0.00 0.00 0.00 32 1008.7
20260504171541 20 233 1.6 1.6 0.00 0.00 0.00 31 1008.8
20260504171038 20 261 9.7 14.5 0.00 0.00 0.00 31 1009.0
20260504170533 20 244 12.9 14.5 0.00 0.00 0.00 30 1008.8
20260504150918 19 233 6.4 11.3 0.00 0.00 0.00 34 1010.0
20260504150414 19 261 3.2 4.8 0.00 0.00 0.00 35 1009.9
20260504140841 18 185 8.0 11.3 0.00 0.00 0.00 35 1010.9
20260504140336 18 180 0.0 1.6 0.00 0.00 0.00 37 1010.9
20260504130805 15 228 8.0 11.3 0.00 0.00 0.00 42 1011.4
20260504130301 15 215 6.4 6.4 0.00 0.00 0.00 44 1011.4
20260504120225 11 242 3.2 4.8 0.00 0.00 0.00 58 1011.9
20260504110647 7 203 0.0 0.0 0.00 0.00 0.00 66 1011.7
20260504110143 7 165 0.0 1.6 0.00 0.00 0.00 68 1011.8
20260504100603 5 205 0.0 0.0 0.00 0.00 0.00 72 1011.6
20260504081957 5 196 0.0 0.0 0.00 0.00 0.00 66 1011.3
20260504081455 5 193 0.0 0.0 0.00 0.00 0.00 66 1011.3
20260504080949 5 187 0.0 0.0 0.00 0.00 0.00 64 1011.2
20260504080446 5 187 0.0 0.0 0.00 0.00 0.00 65 1011.3